Regional Weather Roundup
Issued by NWS

Home | Current Version | Previous Version | Text Only | Print | Product List | Glossary Off
Versions: 1 2 3 4 5 6 7 8 9 10 11 12 13 14 15 16 17 18 19 20 21 22 23 24 25 26 27 28 29 30 31 32 33 34 35 36 37 38 39 40 41 42 43 44 45 46 47 48 49 50

000
ASUS43 KLMK 021810
RWRKY
KENTUCKY REGIONAL WEATHER ROUNDUP
NATIONAL WEATHER SERVICE LOUISVILLE KY
200 PM EDT MON MAY 02 2016

NOTE "FAIR" INDICATES FEW OR NO CLOUDS BELOW 12,000 FEET
WITH NO SIGNIFICANT WEATHER AND/OR OBSTRUCTIONS TO VISIBILITY.

KYZ001>023-026-027-061>063-070>075-021900-
WESTERN AND SOUTH CENTRAL KENTUCKY

CITY           SKY/WX    TMP DP  RH WIND       PRES   REMARKS
PADUCAH        CLOUDY    66  51  58 CALM      29.99F
HENDERSON      CLOUDY    63  48  59 SW8       30.01R
OWENSBORO      CLOUDY    63  53  69 W8        30.02R
HOPKINSVILLE   PTSUNNY   57  55  92 NE3       29.98F
BOWLING GREEN  LGT RAIN  59  56  89 CALM      30.01F FOG
GLASGOW        TSTM      58  58 100 W3        30.00F
$$

KYZ024-025-028>034-038-045-046-053-021900-
NORTH CENTRAL KENTUCKY

CITY           SKY/WX    TMP DP  RH WIND       PRES   REMARKS
LOUISVILLE/SDF CLOUDY    65  54  67 W10       29.97S
LOUISVILLE/LOU CLOUDY    65  54  67 W10       29.97F
FORT KNOX      PTSUNNY   63  55  77 SW6       29.97R
$$

KYZ035>037-039>044-047>052-055>060-089>105-021900-
NORTHEAST KENTUCKY

CITY           SKY/WX    TMP DP  RH WIND       PRES   REMARKS
LEXINGTON      LGT RAIN  61  56  83 E6        29.92F
COVINGTON      CLOUDY    64  53  67 W6        29.97R
FRANKFORT      PTSUNNY   68  54  60 SW6       29.93F
$$

KYZ054-064>069-076>088-106>120-021900-
SOUTHEAST KENTUCKY

CITY           SKY/WX    TMP DP  RH WIND       PRES   REMARKS
JACKSON        TSTM      63  60  90 NW5       29.97R FOG
LONDON         TSTM      67  61  81 NW8       29.96R
SOMERSET       TSTM      63  61  94 N9        29.99R
MIDDLESBORO    CLOUDY    74  63  66 S9        29.96F
MONTICELLO     LGT RAIN  66  63  90 NW6       30.00R
$$





USA.gov is the U.S. government's official web portal to all federal, state and local government web resources and services.